Regional Weather Roundup
Issued by NWS

Home | Current Version | Previous Version | Graphics & Text | Print | Product List | Glossary On
Versions: 1 2 3 4 5 6 7 8 9 10 11 12 13 14 15 16 17 18 19 20 21 22 23 24 25 26 27 28
000
ASUS45 KBOI 060410
RWRID

IDAHO REGIONAL WEATHER ROUNDUP
NATIONAL WEATHER SERVICE BOISE ID
900 PM MST MON DEC 05 2016

NOTE: "FAIR" INDICATES FEW OR NO CLOUDS BELOW 12000 FEET
WITH NO SIGNIFICANT WEATHER AND/OR OBSTRUCTIONS TO VISIBILITY

IDZ012-014-060500-
SOUTHWEST IDAHO


CITY           SKY/WX    TMP DP  RH WIND       PRES   REMARKS
BOISE          CLEAR     25  15  66 SE8       30.02F WCI  16
CALDWELL       CLEAR     24  17  74 E9        30.04S WCI  14
MOUNTAIN HOME  CLEAR     22  18  87 E6        30.03F WCI  14
$$

IDZ016-017-060500-
SOUTHCENTRAL IDAHO


CITY           SKY/WX    TMP DP  RH WIND       PRES   REMARKS
BURLEY         CLEAR     13   8  81 S5        30.01S WCI   5
JEROME         CLEAR     16  11  80 E8        30.01F WCI   5
TWIN FALLS     CLEAR     11   5  77 S10       30.00F WCI  -3
$$

IDZ019>023-060500-
SOUTHEAST IDAHO


CITY           SKY/WX    TMP DP  RH WIND       PRES   REMARKS
IDAHO FALLS    CLEAR     18   8  65 S9        29.99F WCI   7
POCATELLO      CLEAR     12   3  67 CALM      30.02S
REXBURG        CLEAR     16   7  67 S10       29.98S WCI   4
$$

IDZ006-010-011-018-031-032-060500-
CENTRAL IDAHO MOUNTAINS


CITY           SKY/WX    TMP DP  RH WIND       PRES   REMARKS
MCCALL         MOCLDY    11   7  84 CALM      29.90F
HAILEY         CLEAR      9   1  72 NW8       29.97F WCI  -4
STANLEY          N/A     -6 -11  79 CALM      29.90S
SALMON         CLEAR      7   1  78 CALM      29.99S
CHALLIS        CLEAR     11   3  70 CALM      29.95S
$$

IDZ002-004-006-007-026-060500-
NORTHERN IDAHO


CITY           SKY/WX    TMP DP  RH WIND       PRES   REMARKS
LEWISTON       CLOUDY    33  22  63 E5        30.00F WCI  29
LOWELL           N/A     30  26  85 SW5       30.09S WCI  25
COEUR D`ALENE  MOCLDY    25  22  88 NE7       30.01S WCI  17
MULLAN PASS    CLOUDY    12   9  87 S3        29.82F
$$




USA.gov is the U.S. government's official web portal to all federal, state and local government web resources and services.